FW2118 Yalikoy current weather conditions

sailwx.info

Wind from 031 at 7 knots gusting 14

Air temperature 25.0° C
Dewpoint 23.1° C

Last reported at 2020-Aug-09 20:03 UTC.
Time now 2020-Aug-09 20:51 UTC

Location: N 41°29' E 028°18'.
View on Google Maps.

See reports from other nearby stations

  
Tides and Currents Weather Stations Pressure Air Temp Water Temp Dewpoint Dewpoint Depression Visibility Wind Speed Wind Dir Waves Ship Positions
date/time (UTC)wind fromknots sea level pressurealtimeterstation pressurevisibilityair tempwater tempwave heightnotes
2020-Aug-09 20:03 031 7 gusting 14 25.0
2020-Aug-09 19:37 048 6 gusting 15 24.4
2020-Aug-09 19:33 057 6 gusting 15 24.4
2020-Aug-09 19:28 063 7 gusting 8 24.4
2020-Aug-09 19:23 063 7 gusting 8 24.4
2020-Aug-09 19:17 063 7 gusting 14 24.4
2020-Aug-09 19:12 063 7 gusting 14 24.4
2020-Aug-09 19:01 001 7 gusting 13 24.4
2020-Aug-09 18:37 066 9 gusting 16 24.4
2020-Aug-09 18:31 014 9 gusting 16 24.4
2020-Aug-09 18:21 031 8 gusting 15 24.4
2020-Aug-09 18:11 012 7 gusting 15 24.4
2020-Aug-09 18:06 019 9 gusting 15 24.4
2020-Aug-09 18:01 003 8 gusting 6 24.4
2020-Aug-09 17:51 003 8 gusting 14 24.4
2020-Aug-09 17:46 003 8 gusting 15 24.4
2020-Aug-09 17:41 025 8 gusting 17 24.4
2020-Aug-09 17:36 038 8 gusting 17 25.0
2020-Aug-09 17:31 024 8 gusting 16 25.0
2020-Aug-09 17:26 053 9 gusting 7 25.0
2020-Aug-09 17:16 053 9 gusting 15 25.0
2020-Aug-09 17:10 053 9 gusting 16 25.0
2020-Aug-09 17:05 050 9 gusting 16 25.0
2020-Aug-09 17:01 033 9 gusting 16 25.0
2020-Aug-09 16:50 356 10 gusting 19 25.0
2020-Aug-09 16:45 024 11 gusting 18 25.0
2020-Aug-09 16:40 035 11 gusting 18 25.0
2020-Aug-09 16:35 022 10 gusting 18 25.0
2020-Aug-09 16:30 019 10 gusting 18 25.0
2020-Aug-09 16:25 359 11 gusting 18 25.0
2020-Aug-09 16:20 038 11 gusting 19 25.0
2020-Aug-09 16:15 053 10 gusting 21 25.0
2020-Aug-09 16:10 007 10 gusting 21 25.0
2020-Aug-09 16:05 007 10 gusting 19 25.0
2020-Aug-09 16:00 022 10 gusting 19 25.0
2020-Aug-09 15:55 049 11 gusting 17 25.6
2020-Aug-09 15:50 059 11 gusting 21 25.6
2020-Aug-09 15:45 028 10 gusting 21 25.6
2020-Aug-09 15:40 018 10 gusting 18 25.6
2020-Aug-09 15:35 002 10 gusting 11 25.6
2020-Aug-09 15:30 002 10 gusting 17 25.6
2020-Aug-09 15:25 002 10 gusting 18 25.6
2020-Aug-09 15:19 029 10 gusting 20 25.6
2020-Aug-09 15:14 038 11 gusting 20 25.6
2020-Aug-09 15:09 006 11 gusting 13 25.6
2020-Aug-09 15:04 006 11 gusting 13 25.6
2020-Aug-09 14:59 006 11 gusting 14 25.6
2020-Aug-09 14:54 006 11 gusting 20 25.6
2020-Aug-09 14:49 022 11 gusting 20 25.6
2020-Aug-09 14:44 035 11 gusting 19 25.6
2020-Aug-09 14:38 024 10 gusting 19 25.6
2020-Aug-09 14:33 024 10 gusting 18 26.1
2020-Aug-09 14:28 350 10 gusting 18 26.1
2020-Aug-09 14:23 007 11 gusting 17 26.1
2020-Aug-09 14:18 040 13 gusting 15 26.1
2020-Aug-09 14:13 040 13 gusting 15 26.1
2020-Aug-09 14:08 040 13 gusting 20 26.1
2020-Aug-09 14:03 038 13 gusting 20 26.1
2020-Aug-09 13:58 012 13 gusting 19 26.1
2020-Aug-09 13:53 350 12 gusting 19 26.1
2020-Aug-09 13:48 008 12 gusting 19 26.1
2020-Aug-09 13:43 020 12 gusting 20 26.1
2020-Aug-09 13:38 048 12 gusting 22 26.1
2020-Aug-09 13:33 332 13 gusting 22 25.6
2020-Aug-09 13:28 015 13 gusting 22 25.6
2020-Aug-09 13:23 359 13 gusting 16 26.1
2020-Aug-09 13:17 359 13 gusting 16 26.1
2020-Aug-09 13:12 359 13 gusting 19 26.1
2020-Aug-09 13:07 011 12 gusting 19 26.1
2020-Aug-09 12:57 008 11 gusting 12 26.1
2020-Aug-09 12:52 008 11 gusting 13 26.1
2020-Aug-09 12:47 008 11 gusting 21 26.1
2020-Aug-09 12:42 353 11 gusting 21 26.1
2020-Aug-09 12:37 015 12 gusting 18 26.1
2020-Aug-09 12:32 023 12 gusting 18 26.1
2020-Aug-09 12:27 033 12 gusting 20 26.1
2020-Aug-09 12:22 017 12 gusting 20 26.1
2020-Aug-09 12:17 351 10 gusting 25 26.1
2020-Aug-09 12:12 036 10 gusting 25 26.1
2020-Aug-09 12:07 023 11 gusting 16 26.1
2020-Aug-09 12:03 345 11 gusting 17 26.7
2020-Aug-09 11:57 337 11 gusting 19 26.7
2020-Aug-09 11:52 358 11 gusting 19 26.7
2020-Aug-09 11:47 012 12 gusting 19 26.7
2020-Aug-09 11:42 017 12 gusting 19 26.7
2020-Aug-09 11:37 018 12 gusting 19 26.7
2020-Aug-09 11:32 024 12 gusting 22 26.7
2020-Aug-09 11:28 027 11 gusting 22 26.7
2020-Aug-09 11:22 013 11 gusting 18 26.7
2020-Aug-09 11:17 358 12 gusting 18 26.7
2020-Aug-09 11:12
2020-Aug-09 11:06
2020-Aug-09 11:01
2020-Aug-09 10:56
2020-Aug-09 10:50 007 11 gusting 16 26.7
2020-Aug-09 10:45 007 11 gusting 16 26.7
2020-Aug-09 10:40 007 11 gusting 19 26.7
2020-Aug-09 10:30 011 11 gusting 17 26.7
2020-Aug-09 10:25 022 11 gusting 9 26.7
2020-Aug-09 10:19 022 11 gusting 11 26.7
2020-Aug-09 10:14 022 11 gusting 20 26.7
2020-Aug-09 10:09 028 11 gusting 20 26.1
2020-Aug-09 10:04 020 12 gusting 20 26.7
2020-Aug-09 09:59 023 12 gusting 19 26.7
2020-Aug-09 09:54 015 11 gusting 19 26.7
2020-Aug-09 09:49 026 11 gusting 19 26.7
2020-Aug-09 09:44 015 11 gusting 16 27.2
2020-Aug-09 09:39 353 11 gusting 16 27.2
2020-Aug-09 09:34 023 11 gusting 16 26.7
2020-Aug-09 09:29 336 11 gusting 18 27.2
2020-Aug-09 09:24 025 10 gusting 18 27.2
2020-Aug-09 09:19 336 10 gusting 17 27.2
2020-Aug-09 09:14 342 10 gusting 16 27.2
2020-Aug-09 09:09 027 9 gusting 9 27.2
2020-Aug-09 09:04 027 9 gusting 9 27.2
2020-Aug-09 08:58 027 9 gusting 15 27.2
2020-Aug-09 08:53 027 9 gusting 17 27.2
2020-Aug-09 08:48 029 9 gusting 17 27.2
2020-Aug-09 08:44 028 8 gusting 14 27.8
2020-Aug-09 08:38 028 8 gusting 14 27.8
2020-Aug-09 08:33 028 8 gusting 17 27.8
2020-Aug-09 08:28 028 8 gusting 17 27.8
2020-Aug-09 08:23 020 7 gusting 5 27.8
2020-Aug-09 08:18 020 7 gusting 15 27.8
2020-Aug-09 08:13 020 7 gusting 15 27.8
2020-Aug-09 08:07 012 8 gusting 13 27.8
2020-Aug-09 07:52 026 7 gusting 13 27.8
2020-Aug-09 07:47 348 7 gusting 13 27.8
2020-Aug-09 07:38 347 6 gusting 13 27.8
2020-Aug-09 07:27 315 7 gusting 13 27.8
2020-Aug-09 07:22 304 7 gusting 12 27.8
2020-Aug-09 07:17 346 7 gusting 9 27.2
2020-Aug-09 07:13 019 8 gusting 8 26.7
2020-Aug-09 07:07 019 8 gusting 12 26.7
2020-Aug-09 06:51 26.7
2020-Aug-09 06:45 26.7
2020-Aug-09 06:40 355 11 gusting 12 26.7
2020-Aug-09 06:35 355 11 gusting 12 26.7
2020-Aug-09 06:29 355 11 gusting 13 26.7
2020-Aug-09 06:24 355 11 gusting 15 26.7
2020-Aug-09 06:13 009 11 gusting 16 26.7
2020-Aug-09 06:08 031 11 gusting 19 26.7
2020-Aug-09 06:03 009 11 gusting 19 26.7
2020-Aug-09 05:58 006 11 gusting 19 26.7
2020-Aug-09 05:53 356 10 gusting 18 26.7
2020-Aug-09 05:48 013 10 gusting 19 26.7
2020-Aug-09 05:43 017 10 gusting 19 26.7
2020-Aug-09 05:33 011 11 gusting 20 26.7
2020-Aug-09 05:28 011 11 gusting 20 26.7
2020-Aug-09 05:23 027 11 gusting 18 26.7
2020-Aug-09 05:18 019 11 gusting 18 26.7
2020-Aug-09 05:13 019 9 gusting 16 26.7
2020-Aug-09 05:08 005 9 gusting 17 26.7
2020-Aug-09 05:03 002 10 gusting 18 26.1
2020-Aug-09 04:58 021 10 gusting 19 26.1
2020-Aug-09 04:53 022 9 gusting 19 26.1
2020-Aug-09 04:48 008 9 gusting 15 26.1
2020-Aug-09 04:43 007 10 gusting 17 26.1
2020-Aug-09 04:38 014 10 gusting 19 26.1
2020-Aug-09 04:33 022 9 gusting 19 26.1
2020-Aug-09 04:28 003 9 gusting 17 26.1
2020-Aug-09 04:23 034 9 gusting 16 25.6
2020-Aug-09 04:18 049 8 gusting 9 25.6
2020-Aug-09 04:13 049 8 gusting 9 25.6
2020-Aug-09 04:08 049 8 gusting 13 25.6
2020-Aug-09 04:02 049 8 gusting 14 25.6
2020-Aug-09 03:57 045 7 gusting 16 25.6
2020-Aug-09 03:52 009 7 gusting 16 25.6
2020-Aug-09 03:47 012 8 gusting 13 25.6
2020-Aug-09 03:42 017 8 gusting 15 25.6
2020-Aug-09 03:32 006 7 gusting 16 25.6
2020-Aug-09 03:27 019 8 gusting 15 25.6
2020-Aug-09 03:22 039 8 gusting 13 26.1
2020-Aug-09 03:17 018 8 gusting 13 26.1
2020-Aug-09 03:06 021 7 gusting 13 26.1
2020-Aug-09 03:01 010 7 gusting 13 26.1
2020-Aug-09 02:56 029 7 gusting 13 26.1
2020-Aug-09 02:52 018 7 gusting 13 26.1
2020-Aug-09 02:46 019 7 gusting 12 26.1
2020-Aug-09 02:41 359 7 gusting 13 26.1
2020-Aug-09 02:31 024 7 gusting 13 26.1
2020-Aug-09 02:21 012 6 gusting 13 26.1
2020-Aug-09 02:16 039 5 gusting 13 26.1
2020-Aug-09 02:11 009 5 gusting 84 26.1
2020-Aug-09 02:06 349 6 gusting 84 26.1
2020-Aug-09 02:01 064 6 gusting 84 26.1
2020-Aug-09 01:56 064 6 gusting 84 26.1
2020-Aug-09 01:51 064 6 gusting 84 26.1
2020-Aug-09 01:46 017 6 gusting 10 25.6
2020-Aug-09 01:41 032 6 gusting 10 25.6
2020-Aug-09 01:36 022 6 gusting 13 25.6
2020-Aug-09 01:31 028 6 gusting 13 25.6
2020-Aug-09 01:26 012 6 gusting 10 25.6
2020-Aug-09 01:21 028 6 gusting 10 25.6
2020-Aug-09 01:05 036 5 gusting 4 25.6
2020-Aug-09 01:00 036 5 gusting 9 25.6
2020-Aug-09 00:55 022 5 gusting 9 25.6
2020-Aug-09 00:50 033 6 gusting 5 25.6
2020-Aug-09 00:45 033 6 gusting 5 25.6
2020-Aug-09 00:40 033 6 gusting 9 25.6
2020-Aug-09 00:35 033 6 gusting 10 25.6
2020-Aug-09 00:30 020 6 gusting 10 25.6
2020-Aug-09 00:25 047 6 gusting 6 25.6
2020-Aug-09 00:20 357 5 gusting 6 25.6
2020-Aug-09 00:15 357 5 gusting 8 25.6
2020-Aug-09 00:10 357 5 gusting 8 25.6
2020-Aug-09 00:04 016 7 gusting 6 26.1
2020-Aug-08 23:58 016 7 gusting 8 26.1
2020-Aug-08 23:53 016 7 gusting 12 26.1
2020-Aug-08 23:47 072 8 gusting 12 25.6
2020-Aug-08 23:37 023 8 gusting 13 25.6
2020-Aug-08 23:32 035 8 gusting 14 25.6
2020-Aug-08 23:27 033 7 gusting 14 25.6
2020-Aug-08 23:22 044 7 gusting 13 25.6
2020-Aug-08 23:17 010 8 gusting 11 25.6
2020-Aug-08 23:12 030 8 gusting 7 25.6
2020-Aug-08 23:07 030 8 gusting 7 25.6
2020-Aug-08 23:02 030 8 gusting 13 25.6
2020-Aug-08 22:56 053 8 gusting 13 25.6
2020-Aug-08 22:51 027 8 gusting 13 25.6
2020-Aug-08 22:46 023 7 gusting 13 25.6
2020-Aug-08 22:41 022 7 gusting 13 25.6
2020-Aug-08 22:36 004 7 gusting 12 25.6
2020-Aug-08 22:31 010 7 gusting 11 25.6
2020-Aug-08 22:26 001 7 gusting 12 25.6
2020-Aug-08 22:21 042 7 gusting 12 25.6
2020-Aug-08 22:11 355 5 gusting 11 25.6
2020-Aug-08 22:06 357 5 gusting 8 25.6
2020-Aug-08 22:01 017 5 gusting 8 25.6
2020-Aug-08 21:56 039 5 gusting 9 26.1
2020-Aug-08 21:51 050 5 gusting 9 26.1
2020-Aug-08 21:46 026 4 gusting 9 26.1
2020-Aug-08 21:41 031 4 gusting 7 25.6
2020-Aug-08 21:36 021 4 gusting 5 26.1
2020-Aug-08 21:31 021 4 gusting 5 26.1
2020-Aug-08 21:26 021 4 gusting 6 26.1
2020-Aug-08 21:21 021 4 gusting 8 26.1
2020-Aug-08 21:16 343 4 gusting 8 26.1
2020-Aug-08 21:11 048 4 gusting 8 26.1
2020-Aug-08 21:06 036 4 gusting 9 26.1
2020-Aug-08 21:01 328 4 gusting 9 26.1
2020-Aug-08 20:56 352 3 gusting 8 26.1
2020-Aug-08 20:51 052 3 gusting 6 26.1
2020-Aug-08 20:46 043 3 gusting 6 26.1
2020-Aug-08 20:40 066 3 gusting 6 26.1
2020-Aug-08 20:35 016 3 gusting 7 26.1
2020-Aug-08 20:30 020 3 gusting 7 26.1
2020-Aug-08 20:25 015 3 gusting 6 26.1
2020-Aug-08 20:20 022 3 gusting 6 26.1
2020-Aug-08 20:15 031 3 gusting 6 26.1
2020-Aug-08 20:10 023 3 gusting 6 26.1
2020-Aug-08 20:05 013 4 gusting 4 26.1
2020-Aug-08 20:00 030 3 gusting 4 26.1
2020-Aug-08 19:55 030 3 gusting 4 26.1
2020-Aug-08 19:50 030 3 gusting 7 26.1
2020-Aug-08 19:45 030 3 gusting 8 26.1
2020-Aug-08 19:39 025 3 gusting 8 26.1
2020-Aug-08 19:34 024 5 gusting 5 26.1
2020-Aug-08 19:29 024 5 gusting 5 26.1
2020-Aug-08 19:24 024 5 gusting 8 26.1
2020-Aug-08 19:19 001 5 gusting 12 26.1
2020-Aug-08 19:14 015 6 gusting 14 26.1
2020-Aug-08 19:09 050 6 gusting 14 26.1
2020-Aug-08 19:04 059 7 gusting 11 26.1
2020-Aug-08 18:59 046 7 gusting 12 26.1
2020-Aug-08 18:54 052 6 gusting 12 26.1
2020-Aug-08 18:49 056 6 gusting 15 26.1
2020-Aug-08 18:44 019 6 gusting 15 26.1
2020-Aug-08 18:39
2020-Aug-08 18:33
2020-Aug-08 18:28
2020-Aug-08 18:23
2020-Aug-08 18:18 052 9 gusting 9 26.1
2020-Aug-08 18:13 052 9 gusting 9 26.1
2020-Aug-08 18:08 052 9 gusting 13 26.1
2020-Aug-08 18:02 052 9 gusting 14 26.1
2020-Aug-08 17:57 027 9 gusting 14 26.1
2020-Aug-08 17:52 038 9 gusting 14 26.1
2020-Aug-08 17:47 039 9 gusting 14 26.1
2020-Aug-08 17:42 039 9 gusting 14 26.1
2020-Aug-08 17:37 039 9 gusting 16 26.1
2020-Aug-08 17:31 039 9 gusting 16 26.1
2020-Aug-08 17:26 028 9 gusting 16 26.1
2020-Aug-08 17:21 016 9 gusting 7 65.0
2020-Aug-08 17:16 016 9 gusting 7 65.0
2020-Aug-08 17:11 016 9 gusting 17 65.0
2020-Aug-08 17:06 016 9 gusting 17 65.0
2020-Aug-08 17:01 028 11 gusting 13 25.6
2020-Aug-08 16:55 028 11 gusting 13 25.6
2020-Aug-08 16:50 028 11 gusting 16 25.6
2020-Aug-08 16:45 028 11 gusting 16 25.6
2020-Aug-08 16:39 017 11 gusting 16 26.1
2020-Aug-08 16:34 023 11 gusting 19 26.1
2020-Aug-08 16:29 009 11 gusting 19 26.1
2020-Aug-08 16:25
2020-Aug-08 16:19 352 12 gusting 12 26.1
2020-Aug-08 16:14 352 12 gusting 12 26.1
2020-Aug-08 16:09 352 12 gusting 19 26.1
2020-Aug-08 16:04 015 12 gusting 19 26.1
2020-Aug-08 15:59 022 12 gusting 17 26.1
2020-Aug-08 15:54 026 10 gusting 18 26.1
2020-Aug-08 15:49 030 10 gusting 18 26.1
2020-Aug-08 15:44 353 9 gusting 16 26.7
2020-Aug-08 15:39 009 9 gusting 16 26.7
2020-Aug-08 15:34 013 8 gusting 13 26.7
2020-Aug-08 15:28 334 9 gusting 11 26.7
2020-Aug-08 15:24 334 9 gusting 15 26.7
2020-Aug-08 15:18 334 9 gusting 15 26.7
2020-Aug-08 15:13 352 9 gusting 6 26.7
2020-Aug-08 15:05 356 8 gusting 17 26.7
2020-Aug-08 15:00 025 8 gusting 16 26.7
2020-Aug-08 14:55 021 9 gusting 16 26.7
2020-Aug-08 14:50 359 9 gusting 16 26.7
2020-Aug-08 14:45 337 9 gusting 15 26.1
2020-Aug-08 14:40 334 9 gusting 17 26.1
2020-Aug-08 14:35 359 10 gusting 17 26.7
2020-Aug-08 14:30 350 10 gusting 16 26.7
2020-Aug-08 14:25 007 8 gusting 12 26.7
2020-Aug-08 14:20 007 8 gusting 12 26.7
2020-Aug-08 14:15 007 8 gusting 16 26.7
2020-Aug-08 14:09 319 8 gusting 15 26.7
2020-Aug-08 14:04 345 8 gusting 13 26.7
2020-Aug-08 13:59 341 7 gusting 6 26.7
2020-Aug-08 13:54 341 7 gusting 6 26.7
2020-Aug-08 13:49 341 7 gusting 7 26.7
2020-Aug-08 13:44 341 7 gusting 9 26.7
2020-Aug-08 13:38 009 7 gusting 13 26.7
2020-Aug-08 13:33 308 7 gusting 13 26.7
2020-Aug-08 13:28 011 7 gusting 12 26.7
2020-Aug-08 13:23 020 8 gusting 8 26.7
2020-Aug-08 13:13 020 8 gusting 8 26.7
2020-Aug-08 13:08 030 8 gusting 7 27.2
2020-Aug-08 13:02 030 8 gusting 7 27.2
2020-Aug-08 12:57 030 8 gusting 11 27.2
2020-Aug-08 12:52 030 8 gusting 13 27.2
2020-Aug-08 12:47 014 8 gusting 13 27.2
2020-Aug-08 12:42 018 8 gusting 13 27.2
2020-Aug-08 12:37 015 8 gusting 13 27.2
2020-Aug-08 12:32 018 9 gusting 13 27.2
2020-Aug-08 12:26 018 9 gusting 13 27.2
2020-Aug-08 12:21 018 9 gusting 13 27.2
2020-Aug-08 12:16 018 9 gusting 13 27.2
2020-Aug-08 12:11 009 9 gusting 13 27.2
2020-Aug-08 12:06 351 9 gusting 12 27.2
2020-Aug-08 12:00 351 9 gusting 14 27.2
2020-Aug-08 11:55 351 9 gusting 15 27.2
2020-Aug-08 11:50 025 9 gusting 15 27.2
2020-Aug-08 11:45 024 8 gusting 13 27.8
2020-Aug-08 11:40 015 8 gusting 13 27.8
2020-Aug-08 11:35 022 7 gusting 13 27.8
2020-Aug-08 11:30 034 7 gusting 13 27.8
2020-Aug-08 11:25 359 7 gusting 13 27.8
2020-Aug-08 11:20 019 7 gusting 13 27.8
2020-Aug-08 11:15 28.3
2020-Aug-08 11:10
2020-Aug-08 11:05
2020-Aug-08 10:59
2020-Aug-08 10:54
2020-Aug-08 10:49 002 6 gusting 6 27.8
2020-Aug-08 10:43 002 6 gusting 6 27.8
2020-Aug-08 10:38 002 6 gusting 10 27.8
2020-Aug-08 10:33 002 6 gusting 12 27.8
2020-Aug-08 10:28 025 6 gusting 12 28.3
2020-Aug-08 10:23 272 6 gusting 11 27.8
2020-Aug-08 10:18 306 7 gusting 12 27.8
2020-Aug-08 10:12 069 7 gusting 12 27.8
2020-Aug-08 10:07 017 6 gusting 12 27.8
2020-Aug-08 10:02 359 6 gusting 13 27.8
2020-Aug-08 09:57 349 6 gusting 13 27.8
2020-Aug-08 09:52 024 6 gusting 13 27.2
2020-Aug-08 09:47 021 8 gusting 11 27.2
2020-Aug-08 09:42 008 8 gusting 13 27.2
2020-Aug-08 09:37 005 9 gusting 13 27.2
2020-Aug-08 09:32 027 9 gusting 14 27.2
2020-Aug-08 09:27 358 8 gusting 14 27.2
2020-Aug-08 09:22 020 8 gusting 14 27.2
2020-Aug-08 09:17 040 7 gusting 14 27.8
2020-Aug-08 09:07 031 8 gusting 13 27.8
2020-Aug-08 09:02 357 9 gusting 6 27.8
2020-Aug-08 08:57 357 9 gusting 6 27.8
2020-Aug-08 08:52 357 9 gusting 13 27.8
2020-Aug-08 08:47 357 9 gusting 13 27.8
2020-Aug-08 08:42 005 9 gusting 11 27.8
2020-Aug-08 08:37 056 8 gusting 11 27.2
2020-Aug-08 08:31 056 8 gusting 13 27.2
2020-Aug-08 08:26 056 8 gusting 13 27.2
2020-Aug-08 08:21 341 8 gusting 14 27.2
2020-Aug-08 08:16 026 8 gusting 14 27.2
2020-Aug-08 08:11 044 8 gusting 13 27.2
2020-Aug-08 08:06 023 8 gusting 13 27.2
2020-Aug-08 08:01 021 7 gusting 12 27.8
2020-Aug-08 07:55 021 7 gusting 12 27.8
2020-Aug-08 07:50 021 7 gusting 13 27.8
2020-Aug-08 07:45 021 7 gusting 13 27.8
2020-Aug-08 07:40 040 7 gusting 13 27.8
2020-Aug-08 07:35 008 8 gusting 13 27.2
2020-Aug-08 07:30 032 8 gusting 14 27.2
2020-Aug-08 07:20 020 9 gusting 16 27.2
2020-Aug-08 07:15 014 8 gusting 16 27.2
2020-Aug-08 07:10 008 8 gusting 13 27.2
2020-Aug-08 07:05 013 8 gusting 9 27.2
2020-Aug-08 07:00 014 8 gusting 14 27.2
2020-Aug-08 06:54 012 8 gusting 14 27.2
2020-Aug-08 06:49 012 8 gusting 13 27.2
2020-Aug-08 06:44 025 8 gusting 10 27.2
2020-Aug-08 06:39 033 8 gusting 7 26.7
2020-Aug-08 06:35 033 8 gusting 7 26.7
2020-Aug-08 06:29 033 8 gusting 13 26.7
2020-Aug-08 06:24 033 8 gusting 13 26.7
2020-Aug-08 06:19 020 8 gusting 13 26.7
2020-Aug-08 06:14 033 8 gusting 8 26.7
2020-Aug-08 06:09 033 8 gusting 8 26.7
2020-Aug-08 06:04 033 8 gusting 14 26.7
2020-Aug-08 05:59 040 8 gusting 17 26.7
2020-Aug-08 05:53 021 7 gusting 17 26.1
2020-Aug-08 05:48 021 7 gusting 13 26.1
2020-Aug-08 05:43 032 7 gusting 13 26.1
2020-Aug-08 05:38 028 7 gusting 13 26.1
2020-Aug-08 05:33 020 6 gusting 13 25.6
2020-Aug-08 05:28 013 6 gusting 13 25.6
2020-Aug-08 05:23 352 6 gusting 10 25.6
2020-Aug-08 05:18 011 6 gusting 11 25.6
2020-Aug-08 05:14 355 7 gusting 11 25.6
2020-Aug-08 05:08 354 7 gusting 7 25.6
2020-Aug-08 05:03 352 6 gusting 6 25.6
2020-Aug-08 04:58 352 6 gusting 9 25.6
2020-Aug-08 04:53 352 6 gusting 11 25.6
2020-Aug-08 04:48 343 6 gusting 11 25.6
2020-Aug-08 04:43 022 7 gusting 11 25.6
2020-Aug-08 04:38 022 7 gusting 11 25.6
2020-Aug-08 04:33 022 7 gusting 13 25.6
2020-Aug-08 04:28 022 7 gusting 13 25.6
2020-Aug-08 04:22 026 7 gusting 12 25.6
2020-Aug-08 04:17 026 7 gusting 13 25.6
2020-Aug-08 04:12 024 7 gusting 13 25.6
2020-Aug-08 04:07 023 8 gusting 13 25.6
2020-Aug-08 04:02 318 8 gusting 14 25.6
2020-Aug-08 03:57 024 9 gusting 14 25.6
2020-Aug-08 03:52 037 9 gusting 11 25.6
2020-Aug-08 03:47 020 8 gusting 7 25.0
2020-Aug-08 03:42 020 8 gusting 13 25.0
2020-Aug-08 03:37 020 8 gusting 13 25.0
2020-Aug-08 03:32 062 8 gusting 13 25.0
2020-Aug-08 03:27 025 8 gusting 12 25.0
2020-Aug-08 03:22 034 8 gusting 10 25.0
2020-Aug-08 03:17 034 8 gusting 14 25.0
2020-Aug-08 03:12 034 8 gusting 14 25.0
2020-Aug-08 03:06 012 8 gusting 15 25.0
2020-Aug-08 03:01 026 8 gusting 15 25.0
2020-Aug-08 02:56 026 7 gusting 14 25.0
2020-Aug-08 02:51 021 7 gusting 14 25.0
2020-Aug-08 02:46 044 8 gusting 12 25.0
2020-Aug-08 02:41 333 8 gusting 13 25.0
2020-Aug-08 02:36 036 8 gusting 13 25.0
2020-Aug-08 02:31 017 7 gusting 8 25.0
2020-Aug-08 02:26 017 7 gusting 13 25.0
2020-Aug-08 02:21 017 7 gusting 13 25.0
2020-Aug-08 02:16 344 7 gusting 13 25.0
2020-Aug-08 02:11 028 7 gusting 15 25.0
2020-Aug-08 02:06 012 7 gusting 15 25.0
2020-Aug-08 02:01 019 7 gusting 13 25.0
2020-Aug-08 01:56 013 7 gusting 13 25.0
2020-Aug-08 01:51 035 7 gusting 13 25.0
2020-Aug-08 01:46 019 7 gusting 13 25.0
2020-Aug-08 01:41 032 7 gusting 13 25.0
2020-Aug-08 01:36 006 6 gusting 13 25.0
2020-Aug-08 01:31 060 6 gusting 10 24.4
2020-Aug-08 01:26 25.0
2020-Aug-08 01:17 041 6 gusting 13 25.0
2020-Aug-08 01:12 012 6 gusting 13 25.0
2020-Aug-08 01:07 004 5 gusting 11 25.0
2020-Aug-08 01:02 015 5 gusting 11 25.0
2020-Aug-08 00:57 018 6 gusting 10 25.0
2020-Aug-08 00:52 014 6 gusting 11 25.0
2020-Aug-08 00:47 010 5 gusting 11 25.0
2020-Aug-08 00:42 021 6 gusting 6 25.0
2020-Aug-08 00:37 021 6 gusting 9 25.0
2020-Aug-08 00:32 021 6 gusting 9 25.0
2020-Aug-08 00:27 034 6 gusting 9 25.0
2020-Aug-08 00:22 014 5 gusting 6 25.0
2020-Aug-08 00:17 014 5 gusting 10 25.0
2020-Aug-08 00:11 014 5 gusting 11 25.0
2020-Aug-08 00:06 085 5 gusting 11 25.0
2020-Aug-08 00:01 002 5 gusting 9 25.0
2020-Aug-07 23:56 016 5 gusting 10 25.0
2020-Aug-07 23:51 054 5 gusting 11 25.0
2020-Aug-07 23:46 084 6 gusting 11 25.0
2020-Aug-07 23:41 058 6 gusting 5 25.0
2020-Aug-07 23:36 058 6 gusting 5 25.6
2020-Aug-07 23:31 058 6 gusting 13 25.6
2020-Aug-07 23:26 058 6 gusting 14 25.6
2020-Aug-07 23:21 006 6 gusting 14 25.6
2020-Aug-07 23:16 016 5 gusting 11 25.6
2020-Aug-07 23:11 038 5 gusting 11 25.6
2020-Aug-07 23:06 023 6 gusting 10 25.6
2020-Aug-07 23:01 029 6 gusting 9 25.6
2020-Aug-07 22:56 026 6 gusting 5 25.6
2020-Aug-07 22:50 026 6 gusting 10 25.6
2020-Aug-07 22:45 026 6 gusting 12 25.6
2020-Aug-07 22:40 049 6 gusting 12 25.6
2020-Aug-07 22:35 028 6 gusting 11 25.6
2020-Aug-07 22:30 034 6 gusting 9 25.6
2020-Aug-07 22:25 034 6 gusting 9 25.6
2020-Aug-07 22:20 034 6 gusting 11 25.6
2020-Aug-07 22:15 034 6 gusting 11 25.6
2020-Aug-07 22:10 028 6 gusting 11 25.6
2020-Aug-07 22:05 359 6 gusting 11 25.0
2020-Aug-07 22:00 015 6 gusting 10 25.0
2020-Aug-07 21:55 348 6 gusting 8 25.0
2020-Aug-07 21:50 348 6 gusting 9 25.0
2020-Aug-07 21:45 348 6 gusting 10 25.0
2020-Aug-07 21:40 331 6 gusting 10 25.0
2020-Aug-07 21:35 002 6 gusting 8 25.0
2020-Aug-07 21:30 021 6 gusting 6 25.0
2020-Aug-07 21:24 021 6 gusting 9 25.0
2020-Aug-07 21:19 021 6 gusting 9 25.0
2020-Aug-07 21:14 335 6 gusting 10 25.0
2020-Aug-07 21:09 25.0
2020-Aug-07 21:04 325 6 gusting 10 25.0
2020-Aug-07 20:59 327 6 gusting 10 25.0
2020-Aug-07 20:54 011 5 gusting 12 25.0
2020-Aug-07 20:49 359 5 gusting 12 25.0
2020-Aug-07 20:44 340 6 gusting 7 25.0
2020-Aug-07 20:39
2020-Aug-07 20:33
2020-Aug-07 20:28
2020-Aug-07 20:23
2020-Aug-07 20:17
2020-Aug-07 20:12 322 6 gusting 4 25.0
2020-Aug-07 20:06 322 6 gusting 4 25.0
2020-Aug-07 20:01 322 6 gusting 9 25.0